Satellite-Ground Cal/Val Site Overpasses Predictions

Prediction of Satellite NPP Overpassing Cal/Val Site: Antarctic Dome C

Ground Cal/Val Site Location: Latitude: -75.10, Longitude: 123.35; Satellite-Ground Site NADIR distance within 100 km.

Table of predicted overpasses for the next 14.0 days since TLE Epoch: 4/3/2015
Interval Starting Time Ending Time Minimum Distance Time Minimum Distance (km)
1 04/04/2015 14:47:54 04/04/2015 14:48:18 04/04/2015 14:48:06 55.35
2 04/05/2015 07:49:34 04/05/2015 07:49:53 04/05/2015 07:49:43 74.28
3 04/06/2015 07:30:39 04/06/2015 07:31:07 04/06/2015 07:30:53 33.72
4 04/08/2015 15:13:01 04/08/2015 15:13:12 04/08/2015 15:13:06 91.32
5 04/09/2015 14:54:00 04/09/2015 14:54:29 04/09/2015 14:54:14 20.03
6 04/11/2015 07:36:47 04/11/2015 07:37:17 04/11/2015 07:37:02 2.70
7 04/14/2015 15:00:08 04/14/2015 15:00:37 04/14/2015 15:00:23 16.12
8 04/15/2015 14:41:27 04/15/2015 14:41:38 04/15/2015 14:41:33 90.89
9 04/16/2015 07:42:56 04/16/2015 07:43:23 04/16/2015 07:43:09 38.39


NCC Satellite Cal/Val Overpasses Prediction Service
